GW5741 Weather Reports


time (UTC)temp
C
wind
direction
speed
KPH
gust
KPH
rain 1hr
cm
rain 24hr
cm
rain mn
cm
humidity
%
barometer
mb
20260506081450 11 0 0.0 0.0 0.00 0.00 0.00 97 1010.5
20260506080950 12 0 0.0 0.0 0.00 0.00 0.00 97 1010.6
20260506080450 12 0 0.0 0.0 0.00 0.00 0.00 97 1010.5
20260506073450 12 76 0.0 1.6 0.00 0.00 0.00 94 1010.5
20260506072950 12 0 0.0 0.0 0.00 0.00 0.00 94 1010.6
20260506072449 12 100 0.0 1.6 0.00 0.00 0.00 93 1010.6
20260506071949 12 0 0.0 0.0 0.00 0.00 0.00 93 1010.7
20260506071451 13 0 0.0 0.0 0.00 0.00 0.00 93 1010.7
20260506070950 13 0 0.0 0.0 0.00 0.00 0.00 92 1010.7
20260506070450 13 0 0.0 0.0 0.00 0.00 0.00 92 1010.7
20260506062450 13 292 0.0 1.6 0.00 0.00 0.00 91 1010.6
20260506061949 13 0 0.0 0.0 0.00 0.00 0.00 90 1010.6
20260506061450 13 0 0.0 0.0 0.00 0.00 0.00 90 1010.7
20260506060950 13 0 0.0 0.0 0.00 0.00 0.00 89 1010.7
20260506060449 13 0 0.0 0.0 0.00 0.00 0.00 89 1010.6
20260506050949 15 80 0.0 1.6 0.00 0.00 0.00 84 1011.0
20260506050450 15 345 0.0 1.6 0.00 0.00 0.00 84 1011.0
20260506044949 15 79 0.0 1.6 0.00 0.00 0.00 83 1011.0
20260506044449 15 67 0.0 3.2 0.00 0.00 0.00 82 1011.2
20260506043950 15 58 0.0 3.2 0.00 0.00 0.00 82 1011.0
20260506043450 15 0 0.0 0.0 0.00 0.00 0.00 81 1011.0
20260506042950 15 51 0.0 3.2 0.00 0.00 0.00 81 1011.0
20260506042449 15 0 0.0 0.0 0.00 0.00 0.00 81 1011.0
20260506041949 15 0 0.0 0.0 0.00 0.00 0.00 80 1010.9
20260506041449 15 119 1.6 4.8 0.00 0.00 0.00 80 1010.9
20260506040950 15 0 0.0 0.0 0.00 0.00 0.00 79 1010.9
20260506040450 16 0 0.0 0.0 0.00 0.00 0.00 79 1010.9
20260506035950 16 81 0.0 0.0 0.00 0.00 0.00 78 1010.9
20260506035450 16 109 0.0 3.2 0.00 0.00 0.00 78 1011.0
20260506034949 16 57 0.0 1.6 0.00 0.00 0.00 78 1011.0
20260506034450 16 80 0.0 3.2 0.00 0.00 0.00 77 1011.0
20260506033950 16 65 0.0 1.6 0.00 0.00 0.00 76 1010.9
20260506033449 16 49 0.0 1.6 0.00 0.00 0.00 76 1010.9
20260506032949 16 64 0.0 3.2 0.00 0.00 0.00 76 1010.8
20260506032450 16 0 0.0 0.0 0.00 0.00 0.00 75 1010.8
20260506031949 16 138 0.0 3.2 0.00 0.00 0.00 75 1010.8
20260506031449 16 120 0.0 1.6 0.00 0.00 0.00 75 1010.8
20260506030949 16 0 0.0 0.0 0.00 0.00 0.00 74 1010.8
20260506030449 16 143 1.6 4.8 0.00 0.00 0.00 74 1010.8
20260506025949 16 0 0.0 0.0 0.00 0.00 0.00 74 1010.8
20260506025450 17 61 0.0 1.6 0.00 0.00 0.00 74 1010.8
20260506024949 17 76 0.0 3.2 0.00 0.00 0.00 73 1010.9
20260506024450 17 59 0.0 4.8 0.00 0.00 0.00 73 1010.9
20260506023949 17 68 0.0 1.6 0.00 0.00 0.00 72 1010.9
20260506023450 17 29 0.0 1.6 0.00 0.00 0.00 72 1010.8
20260506022950 17 101 1.6 3.2 0.00 0.00 0.00 72 1010.9
20260506022450 17 0 0.0 0.0 0.00 0.00 0.00 71 1010.8
20260506021951 17 100 1.6 3.2 0.00 0.00 0.00 71 1010.8
20260506021449 17 0 0.0 0.0 0.00 0.00 0.00 71 1010.9
20260506020950 17 0 0.0 0.0 0.00 0.00 0.00 71 1010.8
20260506020449 17 104 0.0 1.6 0.00 0.00 0.00 71 1010.7
20260506015950 17 240 0.0 0.0 0.00 0.00 0.00 71 1010.7
20260506015451 17 106 1.6 3.2 0.00 0.00 0.00 70 1010.7
20260506014950 17 126 1.6 4.8 0.00 0.00 0.00 70 1010.6
20260506014451 17 105 1.6 3.2 0.00 0.00 0.00 71 1010.5
20260506013949 17 0 0.0 0.0 0.00 0.00 0.00 71 1010.5
20260506013450 17 140 0.0 1.6 0.00 0.00 0.00 70 1010.5
20260506012950 17 12 0.0 1.6 0.00 0.00 0.00 70 1010.3
20260506012450 17 78 0.0 1.6 0.00 0.00 0.00 70 1010.4
20260506011949 17 101 0.0 3.2 0.00 0.00 0.00 69 1010.3
20260506011449 17 64 0.0 1.6 0.00 0.00 0.00 69 1010.2
20260506010950 18 112 0.0 3.2 0.00 0.00 0.00 69 1010.2
20260506010449 18 79 0.0 3.2 0.00 0.00 0.00 69 1010.2
20260506005953 18 57 0.0 1.6 0.00 0.00 0.00 69 1010.1
20260506005450 18 67 0.0 1.6 0.00 0.00 0.00 68 1010.0
20260506004950 18 48 1.6 4.8 0.00 0.00 0.00 68 1010.0
20260506004451 18 101 0.0 0.0 0.00 0.00 0.00 68 1010.0
20260506003953 18 290 0.0 1.6 0.00 0.00 0.00 67 1009.9
20260506003449 18 100 0.0 3.2 0.00 0.00 0.00 67 1009.7
20260506002950 18 0 0.0 0.0 0.00 0.00 0.00 67 1009.8
20260506002450 18 80 0.0 3.2 0.00 0.00 0.00 66 1009.6
20260506001950 18 63 0.0 3.2 0.00 0.00 0.00 66 1009.6
20260506001449 18 108 0.0 3.2 0.00 0.00 0.00 66 1009.6
20260506000949 19 115 1.6 3.2 0.00 0.00 0.00 65 1009.6
20260506000450 19 97 0.0 1.6 0.00 0.00 0.00 65 1009.5
20260505235949 19 55 0.0 0.0 0.00 0.00 0.00 65 1009.5
20260505235449 19 110 0.0 3.2 0.00 0.00 0.00 64 1009.4
20260505234950 19 234 0.0 3.2 0.00 0.00 0.00 64 1009.4
20260505234450 20 95 1.6 3.2 0.00 0.00 0.00 63 1009.2
20260505233950 20 0 0.0 0.0 0.00 0.00 0.00 63 1009.1
20260505233449 20 117 0.0 1.6 0.00 0.00 0.00 63 1009.1
20260505232949 20 291 0.0 4.8 0.00 0.00 0.00 62 1009.0
20260505232451 20 66 0.0 3.2 0.00 0.00 0.00 62 1008.9
20260505231949 20 100 1.6 3.2 0.00 0.00 0.00 61 1008.9
20260505231449 21 0 0.0 0.0 0.00 0.00 0.00 61 1008.8
20260505230949 21 97 0.0 1.6 0.00 0.00 0.00 60 1008.8
20260505230449 21 126 0.0 1.6 0.00 0.00 0.00 60 1008.8
20260505225950 21 128 1.6 3.2 0.00 0.00 0.00 60 1008.7
20260505225451 21 96 0.0 3.2 0.00 0.00 0.00 59 1008.6
20260505224950 21 111 0.0 3.2 0.00 0.00 0.00 59 1008.5
20260505224449 21 96 0.0 3.2 0.00 0.00 0.00 59 1008.4
20260505223951 21 51 1.6 3.2 0.00 0.00 0.00 59 1008.3
20260505223450 21 328 1.6 3.2 0.00 0.00 0.00 59 1008.3
20260505222950 21 114 0.0 3.2 0.00 0.00 0.00 59 1008.4
20260505222449 21 106 1.6 4.8 0.00 0.00 0.00 58 1008.5
20260505221949 21 126 3.2 6.4 0.00 0.00 0.00 58 1008.7
20260505221450 22 20 0.0 1.6 0.00 0.00 0.00 57 1008.6
20260505220949 22 354 1.6 3.2 0.00 0.00 0.00 57 1008.5
20260505220449 22 107 1.6 4.8 0.00 0.00 0.00 57 1008.4
20260505215953 22 124 1.6 3.2 0.00 0.00 0.00 56 1008.5
20260505215449 23 265 1.6 3.2 0.00 0.00 0.00 55 1008.3
20260505214949 23 313 1.6 4.8 0.00 0.00 0.00 54 1008.3
20260505214449 23 88 1.6 6.4 0.00 0.00 0.00 54 1008.3
20260505213505 24 152 3.2 8.0 0.00 0.00 0.00 52 1008.3
20260505212949 24 123 0.0 3.2 0.00 0.00 0.00 53 1008.2
20260505212449 24 200 0.0 1.6 0.00 0.00 0.00 53 1008.3
20260505211949 24 231 1.6 4.8 0.00 0.00 0.00 53 1008.2
20260505211449 24 73 1.6 6.4 0.00 0.00 0.00 53 1008.2
20260505210950 25 95 3.2 8.0 0.00 0.00 0.00 53 1008.1
20260505210450 24 143 0.0 3.2 0.00 0.00 0.00 54 1008.1
20260505205949 24 258 1.6 4.8 0.00 0.00 0.00 53 1008.1
20260505205449 24 206 1.6 3.2 0.00 0.00 0.00 54 1008.1
20260505204950 24 93 1.6 3.2 0.00 0.00 0.00 53 1008.2
20260505204450 24 57 1.6 8.0 0.00 0.00 0.00 53 1008.3
20260505203949 24 212 0.0 3.2 0.00 0.00 0.00 54 1008.2
20260505203451 24 134 0.0 3.2 0.00 0.00 0.00 54 1008.1
20260505202950 24 110 1.6 4.8 0.00 0.00 0.00 54 1008.2
20260505202450 25 120 0.0 3.2 0.00 0.00 0.00 53 1008.3
20260505201949 25 258 0.0 3.2 0.00 0.00 0.00 54 1008.4
20260505201450 25 8 1.6 4.8 0.00 0.00 0.00 53 1008.4
20260505200950 25 73 1.6 4.8 0.00 0.00 0.00 52 1008.5
20260505200450 25 93 1.6 3.2 0.00 0.00 0.00 52 1008.5
20260505195950 25 259 0.0 4.8 0.00 0.00 0.00 54 1008.5
20260505195450 25 128 3.2 6.4 0.00 0.00 0.00 52 1008.7
20260505194950 25 143 1.6 6.4 0.00 0.00 0.00 53 1008.7
20260505194449 25 193 1.6 4.8 0.00 0.00 0.00 53 1008.8
20260505193950 25 232 1.6 4.8 0.00 0.00 0.00 53 1008.8
20260505193450 25 107 1.6 3.2 0.00 0.00 0.00 53 1008.9
20260505192949 25 152 1.6 4.8 0.00 0.00 0.00 53 1008.9
20260505192450 25 127 1.6 3.2 0.00 0.00 0.00 54 1008.9
20260505191949 25 10 1.6 3.2 0.00 0.00 0.00 53 1008.9
20260505191451 25 216 1.6 4.8 0.00 0.00 0.00 54 1008.9
20260505190950 25 117 3.2 9.7 0.00 0.00 0.00 53 1009.1
20260505190450 25 166 1.6 3.2 0.00 0.00 0.00 53 1009.2
20260505185950 25 150 1.6 4.8 0.00 0.00 0.00 52 1009.2
20260505185449 25 78 1.6 3.2 0.00 0.00 0.00 51 1009.3
20260505184950 25 96 1.6 9.7 0.00 0.00 0.00 52 1009.4
20260505184449 25 44 3.2 4.8 0.00 0.00 0.00 52 1009.3
20260505183950 26 115 3.2 4.8 0.00 0.00 0.00 51 1009.4
20260505183450 26 50 3.2 4.8 0.00 0.00 0.00 50 1009.4
20260505182952 26 83 3.2 6.4 0.00 0.00 0.00 51 1009.4
20260505182450 26 240 1.6 8.0 0.00 0.00 0.00 51 1009.3
20260505181950 26 77 1.6 4.8 0.00 0.00 0.00 51 1009.3
20260505181450 27 100 1.6 4.8 0.00 0.00 0.00 50 1009.3
20260505180949 27 269 1.6 3.2 0.00 0.00 0.00 50 1009.3
20260505180449 27 113 1.6 4.8 0.00 0.00 0.00 48 1009.3
20260505175949 27 95 1.6 3.2 0.00 0.00 0.00 49 1009.3
20260505175449 27 130 1.6 4.8 0.00 0.00 0.00 48 1009.3
20260505174950 27 116 1.6 6.4 0.00 0.00 0.00 47 1009.4
20260505174450 27 89 3.2 9.7 0.00 0.00 0.00 47 1009.5
20260505173950 27 107 3.2 8.0 0.00 0.00 0.00 48 1009.5
20260505173449 26 123 1.6 4.8 0.00 0.00 0.00 48 1009.5
20260505172950 26 138 1.6 3.2 0.00 0.00 0.00 49 1009.5
20260505172450 26 136 1.6 3.2 0.00 0.00 0.00 50 1009.6
20260505171949 26 94 3.2 8.0 0.00 0.00 0.00 49 1009.5
20260505171449 26 80 0.0 4.8 0.00 0.00 0.00 49 1009.6
20260505170950 26 67 1.6 3.2 0.00 0.00 0.00 49 1009.6
20260505170450 26 120 1.6 4.8 0.00 0.00 0.00 49 1009.7
20260505165950 25 77 1.6 3.2 0.00 0.00 0.00 50 1009.8
20260505165450 25 46 1.6 4.8 0.00 0.00 0.00 50 1009.9
20260505164950 25 104 3.2 9.7 0.00 0.00 0.00 50 1010.0
20260505164451 25 131 3.2 8.0 0.00 0.00 0.00 50 1010.0
20260505163949 25 116 1.6 4.8 0.00 0.00 0.00 50 1010.0
20260505163458 25 112 1.6 3.2 0.00 0.00 0.00 51 1009.9
20260505162950 25 71 1.6 3.2 0.00 0.00 0.00 50 1010.0
20260505162450 25 111 1.6 4.8 0.00 0.00 0.00 51 1010.1
20260505161952 25 306 0.0 3.2 0.00 0.00 0.00 52 1010.1
20260505161450 25 243 1.6 3.2 0.00 0.00 0.00 51 1010.3
20260505160950 25 98 1.6 6.4 0.00 0.00 0.00 52 1010.5
20260505160450 25 27 1.6 3.2 0.00 0.00 0.00 51 1010.6
20260505152950 23 69 3.2 9.7 0.00 0.00 0.00 53 1010.8
20260505152450 23 114 1.6 6.4 0.00 0.00 0.00 55 1010.8
20260505151949 23 90 1.6 6.4 0.00 0.00 0.00 54 1010.8
20260505151450 23 102 1.6 3.2 0.00 0.00 0.00 54 1011.0
20260505150951 23 82 1.6 4.8 0.00 0.00 0.00 54 1011.0
20260505150449 23 71 1.6 3.2 0.00 0.00 0.00 55 1011.2
20260505140450 20 26 1.6 4.8 0.00 0.00 0.00 61 1011.4
20260505124950 15 28 1.6 3.2 0.00 0.00 0.00 80 1011.2
20260505124450 15 108 1.6 3.2 0.00 0.00 0.00 81 1010.9
20260505123949 15 60 1.6 3.2 0.00 0.00 0.00 82 1011.0
20260505123010 14 84 0.0 1.6 0.00 0.00 0.00 84 1011.2
20260505122451 13 0 0.0 0.0 0.00 0.00 0.00 86 1011.0
20260505121950 13 304 0.0 1.6 0.00 0.00 0.00 87 1011.3
20260505121449 13 0 0.0 0.0 0.00 0.00 0.00 89 1011.3
20260505120950 13 0 0.0 0.0 0.00 0.00 0.00 89 1011.3
20260505120449 13 0 0.0 0.0 0.00 0.00 0.00 88 1011.2
20260505115949 13 0 0.0 0.0 0.00 0.00 0.00 88 1011.2
20260505115451 13 0 0.0 0.0 0.00 0.00 0.00 90 1011.3
20260505114958 12 0 0.0 0.0 0.00 0.00 0.00 90 1011.3
20260505114453 12 0 0.0 0.0 0.00 0.00 0.00 91 1011.4
20260505113949 12 0 0.0 0.0 0.00 0.00 0.00 93 1011.5
20260505113449 11 0 0.0 0.0 0.00 0.00 0.00 95 1011.4
20260505112949 11 74 0.0 0.0 0.00 0.00 0.00 99 1011.5
20260505112451 10 0 0.0 0.0 0.00 0.00 0.00 100 1011.5
20260505111949 10 0 0.0 0.0 0.00 0.00 0.00 99 1011.4
20260505111450 9 0 0.0 0.0 0.00 0.00 0.00 99 1011.5
20260505110949 8 0 0.0 0.0 0.00 0.00 0.00 99 1011.6
20260505110449 8 0 0.0 0.0 0.00 0.00 0.00 100 1011.6
20260505101950 7 0 0.0 0.0 0.00 0.00 0.00 99 1010.7
20260505101450 7 0 0.0 0.0 0.00 0.00 0.00 99 1010.6
20260505100949 7 0 0.0 0.0 0.00 0.00 0.00 99 1010.5
20260505100449 7 0 0.0 0.0 0.00 0.00 0.00 99 1010.5
20260505095950 7 0 0.0 0.0 0.00 0.00 0.00 99 1010.4
20260505095450 7 0 0.0 0.0 0.00 0.00 0.00 99 1010.4
20260505094949 7 0 0.0 0.0 0.00 0.00 0.00 100 1010.4
20260505094450 7 0 0.0 0.0 0.00 0.00 0.00 99 1010.2
20260505093952 7 0 0.0 0.0 0.00 0.00 0.00 99 1010.2
20260505093449 7 0 0.0 0.0 0.00 0.00 0.00 100 1010.3
20260505092949 7 0 0.0 0.0 0.00 0.00 0.00 100 1010.3
20260505092449 7 0 0.0 0.0 0.00 0.00 0.00 99 1010.4
20260505091956 7 0 0.0 0.0 0.00 0.00 0.00 99 1010.3
20260505091450 7 0 0.0 0.0 0.00 0.00 0.00 100 1010.3
20260505090949 7 0 0.0 0.0 0.00 0.00 0.00 100 1010.3
20260505090450 7 0 0.0 0.0 0.00 0.00 0.00 99 1010.3
20260505085949 7 0 0.0 0.0 0.00 0.00 0.00 99 1010.4
20260505085450 7 0 0.0 0.0 0.00 0.00 0.00 99 1010.3
20260505084949 7 0 0.0 0.0 0.00 0.00 0.00 99 1010.2
20260505084450 7 0 0.0 0.0 0.00 0.00 0.00 99 1010.3
20260505083950 7 0 0.0 0.0 0.00 0.00 0.00 99 1010.3
20260505083449 7 0 0.0 0.0 0.00 0.00 0.00 99 1010.3
20260505082949 7 0 0.0 0.0 0.00 0.00 0.00 99 1010.4
20260505082449 7 0 0.0 0.0 0.00 0.00 0.00 98 1010.4
20260505081951 7 0 0.0 0.0 0.00 0.00 0.00 98 1010.3